Regional Weather Roundup
Issued by NWS

Home | Current Version | Previous Version | Text Only | Print | Product List | Glossary On
Versions: 1 2 3 4 5 6 7 8 9 10 11 12 13 14 15 16 17 18 19 20 21 22 23 24 25 26 27 28 29 30 31 32 33 34 35 36 37 38 39 40 41 42 43 44 45 46 47 48 49 50
000
ASMX46 KSGX 202110
RWRMX

MEXICAN WEATHER ROUNDUP
NATIONAL WEATHER SERVICE SAN DIEGO CA
100 PM PST SAT DEC 20 2014

BAJA CALIFORNIA

CITY           SKY/WX    TMP DP  RH WIND       PRES   REMARKS
ENSENADA NW      N/A     65  32  29 NW10      30.10F
LA PAZ         SUNNY     73  55  53 N13       30.02
LORETO           N/A    N/A N/A N/A MISG        N/A
MEXICALI       PTSUNNY   64  43  45 NW5       30.11
S.J. DEL CABO  SUNNY     79  48  34 N6        29.95F
TIJUANA        PTSUNNY   61  46  59 N6        30.19S

NORTHWESTERN MEXICO

CITY           SKY/WX    TMP DP  RH WIND       PRES   REMARKS
CHIHUAHUA      SUNNY     63  28  27 NE7       30.07
CULIACAN       SUNNY     81  63  54 NW14      29.93
GUAYMAS        SUNNY     77  41  27 NW12      29.95
HERMOSILLO     SUNNY     75  34  22 NW6       30.03
JUAREZ         MOSUNNY   57  37  47 W6        30.04
LOS MOCHIS     SUNNY     75  45  33 NW14      29.95F
OBREGON        SUNNY     77  36  22 S8        29.94

NORTHEASTERN MEXICO

CITY           SKY/WX    TMP DP  RH WIND       PRES   REMARKS
MATAMOROS      PTSUNNY   59  57  94 N12       30.13
MONCLOVA       CLOUDY    59  52  77 NE5       30.06  FOG
MONTERREY      DRIZZLE   55  52  88 SE6       30.10F FOG
NUEVO LAREDO   CLOUDY    55  48  76 NE6       30.16
PIEDRAS NEGRAS CLOUDY    54  46  76 E7        30.15F
REYNOSA        CLOUDY    57  50  77 N7        30.11
SALTILLO       CLOUDY    55  50  82 NE6       30.14F FOG
TORREON        MOSUNNY   66  39  37 N3        30.05F
VICTORIA       CLOUDY    63  57  82 NW7       30.09

WESTERN MEXICO

CITY           SKY/WX    TMP DP  RH WIND       PRES   REMARKS
AGUASCALIENTES PTSUNNY   72  23  16 W7        30.13
COLIMA         SUNNY     81  55  41 CALM      29.97F
DURANGO        MOSUNNY   70   7   8 S6        30.09F
GUADALAJARA    MOSUNNY   81  34  18 W12       30.07
MANZANILLO     SUNNY     86  75  70 SW6       29.83F HX  95
MAZATLAN       MOSUNNY   77  55  47 SW8       29.89F
PTO. VALLARTA  PTSUNNY   79  66  65 S9        29.89F
TEPIC          CLOUDY    77  55  47 N7        30.00F
URUAPAN        SUNNY     73  52  46 S8        30.13F
ZACATECAS      PTSUNNY   66  19  16 SW23      30.16

CENTRAL MEXICO

CITY           SKY/WX    TMP DP  RH WIND       PRES   REMARKS
CUERNAVACA     MOSUNNY   82  46  28 S2        30.04
MEXICO CITY    MOSUNNY   73  39  29 E14       30.21F
MORELIA        MOSUNNY   77  41  27 SW10      30.13
POZA RICA      DRZL/FOG  66  66 100 NW12      30.05F VSB 1
PUEBLA         PTSUNNY   70  45  40 S21       30.25S
QUERETARO      MOSUNNY   75  34  22 NW7       30.17F
S. LUIS POTOSI PTSUNNY   68  45  42 N12       30.12F
TAMPICO        CLOUDY    66  59  77 N12       30.06F
TOLUCA         PTSUNNY   70  41  35 S12       30.30F
VERACRUZ       CLOUDY    77  68  73 E6        29.98F

SOUTHERN MEXICO

CITY           SKY/WX    TMP DP  RH WIND       PRES   REMARKS
ACAPULCO       SUNNY     84  75  74 S2        29.85F
B. DE HUATULCO CLOUDY    88  77  70 SW12      29.89  HX 100
MINATITLAN     CLOUDY    79  68  69 N12       29.94
OAXACA         PTSUNNY   79  45  29 S2        30.12F
PTO. ESCONDIDO MOSUNNY   81  73  78 SW12      30.04S
TAPACHULA      PTSUNNY   86  73  66 SW12      29.86F
TUX. GUTIERREZ MOSUNNY   82  64  54 NW14      29.94F
VILLAHERMOSA   MOSUNNY   81  68  65 CALM      29.97F
ZIHUATANEJO    SUNNY     86  73  66 SW7       29.87F

YUCATAN PENINSULA

CITY           SKY/WX    TMP DP  RH WIND       PRES   REMARKS
CAMPECHE       MOSUNNY   77  73  88 NW14      29.92F
CANCUN         CLOUDY    79  75  89 SE13      29.98R
CHETUMAL       PTSUNNY   82  75  78 CALM      29.91F
C. DEL CARMEN  MOSUNNY   79  72  78 N8        29.95
COZUMEL        PTSUNNY   73  73 100 CALM      29.92F
MERIDA         PTSUNNY   84  70  61 N13       29.94S

$$



USA.gov is the U.S. government's official web portal to all federal, state and local government web resources and services.